sat.trackr.live / text

‹ back to catalog

ARCSAT-1

NORAD 52161 · 2022-033E

PAYLOAD ACTIVE UNKNOWN

§ Identity

Operator
Country
NOR
Launch date
2022-04-01
Launch site
AFETR
Launch vehicle
Mass (kg)
RCS (m²)

External: N2YO · Heavens-Above · Gunter

§ Orbital elements

Epoch: 2026-09-20T12:17:26.245248Z

Period
92.56 min
Inclination
97.2729°
Eccentricity
0.0004405
Mean motion
15.55789537 rev/d
Perigee alt
396.9 km
Apogee alt
402.8 km
Semi-major
6,778.0 km
B*
1.5194e-4
RAAN
357.3400°
Arg perigee
186.5278°
Mean anomaly
173.5920°
Rev number
25,051

§ Raw data

ARCSAT-11 52161U 22033E   26263.51210932  .00010387  00000+0  15194-3 0  99982 52161  97.2729 357.3400 0004405 186.5278 173.5920 15.55789537250510

JSON: /api/v1/satellites/52161 · /tle

For live sub-satellite position, see the globe view (requires WebGL).

§ Visibility from observer

Set your observer location to see the next 7 days of passes ≥ 10°. The values pass through the URL so the page stays shareable.

No JS? Fill the form by hand. The geolocation button needs JavaScript.

§ Radio — SatNOGS DB

ModeDescriptionDownlinkUplink
FM Mode U 1 314.700 MHz
FM Mode U 2 312.050 MHz
FM Mode U 3 268.800 MHz
FM Mode U 4 267.300 MHz
BPSK S-band telemetry 2.207 GHz
FMN S-band telemetry 2.260 GHz

6 transmitters · refreshed weekly from db.satnogs.org